User: anonymous   Login
Location: Caltech
(34.1382°N, 118.1253°W)
Time: 16:02:58
(UTC-08:00)
Language:

Iridium 91 - Orbit

View from above orbital plane
View from above orbital plane
View from above satellite
View from above satellite

Ground track
Ground track

The orbit data is extracted from the following two-line orbital elements,

1 27372U 02005A   14327.47668509  .00000296  00000-0  98793-4 0  5825
2 27372 086.3960 319.2416 0003132 093.7737 069.8945 14.34222401677369
Epoch (UTC): 23 November 2014 11:26:25
Eccentricity: 0.0003132
inclination: 86.3960°
perigee height: 775 km
apogee height: 780 km
right ascension of ascending node: 319.2416°
argument of perigee: 93.7737°
revolutions per day: 14.34222401
mean anomaly at epoch: 69.8945°
orbit number at epoch: 67736

The dashed part of the orbit path shows where the satellite is in the earth's shadow,  

DLR